| time (UTC) | temp C | wind direction | speed KPH | gust KPH | rain 1hr cm | rain 24hr cm | rain mn cm | humidity % | barometer mb |
| 20260503060215 | 1 | 16 | 0.0 | 0.0 | 0.00 | 0.00 | 0.00 | 90 | 1019.7 |
| 20260503054702 | 1 | 344 | 0.0 | 0.0 | 0.00 | 0.00 | 0.00 | 90 | 1019.8 |
| 20260503054159 | 1 | 5 | 0.0 | 0.0 | 0.00 | 0.00 | 0.00 | 89 | 1019.9 |
| 20260503053657 | 1 | 352 | 0.0 | 0.0 | 0.00 | 0.00 | 0.00 | 89 | 1019.8 |
| 20260503053155 | 1 | 350 | 0.0 | 0.0 | 0.00 | 0.00 | 0.00 | 89 | 1019.8 |
| 20260503052651 | 1 | 352 | 0.0 | 0.0 | 0.00 | 0.00 | 0.00 | 89 | 1019.8 |
| 20260503052148 | 1 | 351 | 0.0 | 0.0 | 0.00 | 0.00 | 0.00 | 89 | 1019.6 |
| 20260503051643 | 1 | 351 | 0.0 | 0.0 | 0.00 | 0.00 | 0.00 | 89 | 1019.7 |
| 20260503051141 | 1 | 350 | 0.0 | 0.0 | 0.00 | 0.00 | 0.00 | 89 | 1019.9 |
| 20260503050638 | 2 | 351 | 0.0 | 0.0 | 0.00 | 0.00 | 0.00 | 88 | 1019.7 |
| 20260503050134 | 2 | 333 | 0.0 | 0.0 | 0.00 | 0.00 | 0.00 | 88 | 1019.6 |
| 20260503045632 | 2 | 332 | 0.0 | 0.0 | 0.00 | 0.00 | 0.00 | 88 | 1019.4 |
| 20260503045129 | 2 | 1 | 0.0 | 0.0 | 0.00 | 0.00 | 0.00 | 88 | 1019.8 |
| 20260503044625 | 2 | 2 | 0.0 | 0.0 | 0.00 | 0.00 | 0.00 | 87 | 1019.5 |
| 20260503044123 | 2 | 1 | 0.0 | 0.0 | 0.00 | 0.00 | 0.00 | 87 | 1019.6 |
| 20260503043620 | 2 | 0 | 0.0 | 0.0 | 0.00 | 0.00 | 0.00 | 87 | 1019.7 |
| 20260503043116 | 2 | 0 | 0.0 | 0.0 | 0.00 | 0.00 | 0.00 | 86 | 1019.5 |
| 20260503042613 | 2 | 8 | 0.0 | 0.0 | 0.00 | 0.00 | 0.00 | 86 | 1019.5 |
| 20260503042109 | 2 | 8 | 0.0 | 0.0 | 0.00 | 0.00 | 0.00 | 86 | 1019.6 |
| 20260503041605 | 2 | 8 | 0.0 | 0.0 | 0.00 | 0.00 | 0.00 | 86 | 1019.5 |
| 20260503041104 | 2 | 9 | 0.0 | 0.0 | 0.00 | 0.00 | 0.00 | 85 | 1019.6 |
| 20260503040601 | 2 | 9 | 0.0 | 0.0 | 0.00 | 0.00 | 0.00 | 85 | 1019.3 |
| 20260503040058 | 2 | 9 | 0.0 | 0.0 | 0.00 | 0.00 | 0.00 | 84 | 1019.3 |
| 20260503035554 | 3 | 13 | 0.0 | 0.0 | 0.00 | 0.00 | 0.00 | 84 | 1019.6 |
| 20260503035052 | 3 | 14 | 0.0 | 0.0 | 0.00 | 0.00 | 0.00 | 83 | 1019.5 |
| 20260503034549 | 3 | 7 | 0.0 | 0.0 | 0.00 | 0.00 | 0.00 | 83 | 1019.4 |
| 20260503034046 | 3 | 8 | 0.0 | 0.0 | 0.00 | 0.00 | 0.00 | 83 | 1019.4 |
| 20260503033543 | 3 | 9 | 0.0 | 0.0 | 0.00 | 0.00 | 0.00 | 82 | 1019.4 |
| 20260503033041 | 3 | 11 | 0.0 | 0.0 | 0.00 | 0.00 | 0.00 | 81 | 1019.3 |
| 20260503032539 | 3 | 6 | 0.0 | 0.0 | 0.00 | 0.00 | 0.00 | 80 | 1019.2 |
| 20260503032037 | 4 | 9 | 0.0 | 0.0 | 0.00 | 0.00 | 0.00 | 79 | 1019.2 |
| 20260503031535 | 4 | 14 | 0.0 | 0.0 | 0.00 | 0.00 | 0.00 | 78 | 1019.2 |
| 20260503031032 | 4 | 15 | 0.0 | 0.0 | 0.00 | 0.00 | 0.00 | 76 | 1019.0 |
| 20260503030527 | 5 | 342 | 1.6 | 1.6 | 0.00 | 0.00 | 0.00 | 76 | 1019.0 |
| 20260503030025 | 5 | 10 | 0.0 | 0.0 | 0.00 | 0.00 | 0.00 | 73 | 1019.2 |
| 20260503025521 | 5 | 338 | 0.0 | 0.0 | 0.00 | 0.00 | 0.00 | 71 | 1019.1 |
| 20260503025020 | 6 | 338 | 0.0 | 0.0 | 0.00 | 0.00 | 0.00 | 68 | 1019.1 |
| 20260503024515 | 6 | 338 | 0.0 | 0.0 | 0.00 | 0.00 | 0.00 | 65 | 1019.0 |
| 20260503024013 | 7 | 338 | 0.0 | 0.0 | 0.00 | 0.00 | 0.00 | 61 | 1019.2 |
| 20260503023509 | 7 | 9 | 0.0 | 0.0 | 0.00 | 0.00 | 0.00 | 58 | 1019.1 |
| 20260503023007 | 7 | 10 | 1.6 | 3.2 | 0.00 | 0.00 | 0.00 | 56 | 1019.0 |
| 20260503022502 | 7 | 36 | 3.2 | 3.2 | 0.00 | 0.00 | 0.00 | 55 | 1019.1 |
| 20260503021957 | 7 | 1 | 4.8 | 4.8 | 0.00 | 0.00 | 0.00 | 55 | 1019.0 |
| 20260503021454 | 7 | 15 | 0.0 | 1.6 | 0.00 | 0.00 | 0.00 | 55 | 1019.1 |
| 20260503020951 | 7 | 46 | 1.6 | 1.6 | 0.00 | 0.00 | 0.00 | 56 | 1019.0 |
| 20260503020449 | 7 | 352 | 1.6 | 3.2 | 0.00 | 0.00 | 0.00 | 54 | 1018.8 |
| 20260503015945 | 7 | 20 | 0.0 | 0.0 | 0.00 | 0.00 | 0.00 | 55 | 1018.8 |
| 20260503015442 | 8 | 22 | 0.0 | 1.6 | 0.00 | 0.00 | 0.00 | 55 | 1018.6 |
| 20260503014938 | 8 | 27 | 1.6 | 3.2 | 0.00 | 0.00 | 0.00 | 54 | 1018.6 |
| 20260503014435 | 8 | 354 | 1.6 | 3.2 | 0.00 | 0.00 | 0.00 | 54 | 1018.7 |
| 20260503013933 | 8 | 11 | 0.0 | 1.6 | 0.00 | 0.00 | 0.00 | 54 | 1018.4 |
| 20260503013430 | 8 | 353 | 1.6 | 3.2 | 0.00 | 0.00 | 0.00 | 53 | 1018.4 |
| 20260503012927 | 8 | 330 | 1.6 | 3.2 | 0.00 | 0.00 | 0.00 | 52 | 1018.3 |
| 20260503012425 | 9 | 16 | 0.0 | 1.6 | 0.00 | 0.00 | 0.00 | 51 | 1018.1 |
| 20260503011920 | 9 | 16 | 3.2 | 4.8 | 0.00 | 0.00 | 0.00 | 51 | 1018.1 |
| 20260503011412 | 9 | 24 | 6.4 | 9.7 | 0.00 | 0.00 | 0.00 | 51 | 1018.0 |
| 20260503010909 | 9 | 2 | 0.0 | 1.6 | 0.00 | 0.00 | 0.00 | 52 | 1018.0 |
| 20260503010406 | 9 | 343 | 3.2 | 3.2 | 0.00 | 0.00 | 0.00 | 52 | 1018.0 |
| 20260503005903 | 9 | 3 | 1.6 | 1.6 | 0.00 | 0.00 | 0.00 | 52 | 1018.0 |
| 20260503005400 | 9 | 22 | 1.6 | 1.6 | 0.00 | 0.00 | 0.00 | 51 | 1018.0 |
| 20260503004856 | 10 | 307 | 3.2 | 3.2 | 0.00 | 0.00 | 0.00 | 51 | 1017.7 |
| 20260503004354 | 10 | 9 | 0.0 | 1.6 | 0.00 | 0.00 | 0.00 | 50 | 1017.9 |
| 20260503003851 | 10 | 350 | 3.2 | 3.2 | 0.00 | 0.00 | 0.00 | 49 | 1017.8 |
| 20260503003348 | 10 | 6 | 4.8 | 8.0 | 0.00 | 0.00 | 0.00 | 49 | 1017.8 |
| 20260503002845 | 10 | 5 | 3.2 | 4.8 | 0.00 | 0.00 | 0.00 | 48 | 1017.5 |
| 20260503002342 | 10 | 36 | 4.8 | 8.0 | 0.00 | 0.00 | 0.00 | 48 | 1017.5 |
| 20260503001838 | 10 | 30 | 1.6 | 1.6 | 0.00 | 0.00 | 0.00 | 49 | 1017.5 |
| 20260503001335 | 10 | 356 | 3.2 | 3.2 | 0.00 | 0.00 | 0.00 | 48 | 1017.5 |
| 20260503000832 | 10 | 343 | 0.0 | 1.6 | 0.00 | 0.00 | 0.00 | 48 | 1017.3 |
| 20260503000330 | 11 | 295 | 8.0 | 9.7 | 0.00 | 0.00 | 0.00 | 46 | 1017.1 |
| 20260502235827 | 11 | 356 | 0.0 | 0.0 | 0.00 | 0.00 | 0.00 | 47 | 1017.3 |
| 20260502235324 | 11 | 1 | 4.8 | 4.8 | 0.00 | 0.00 | 0.00 | 46 | 1017.0 |
| 20260502234820 | 11 | 323 | 0.0 | 1.6 | 0.00 | 0.00 | 0.00 | 47 | 1017.1 |
| 20260502234317 | 11 | 7 | 0.0 | 0.0 | 0.00 | 0.00 | 0.00 | 47 | 1016.8 |
| 20260502233814 | 11 | 299 | 0.0 | 1.6 | 0.00 | 0.00 | 0.00 | 47 | 1016.9 |
| 20260502233311 | 11 | 330 | 4.8 | 4.8 | 0.00 | 0.00 | 0.00 | 45 | 1017.0 |
| 20260502232807 | 11 | 311 | 4.8 | 8.0 | 0.00 | 0.00 | 0.00 | 45 | 1016.9 |
| 20260502232305 | 11 | 301 | 1.6 | 3.2 | 0.00 | 0.00 | 0.00 | 46 | 1016.7 |
| 20260502231800 | 11 | 30 | 0.0 | 1.6 | 0.00 | 0.00 | 0.00 | 45 | 1016.8 |
| 20260502231258 | 11 | 327 | 3.2 | 3.2 | 0.00 | 0.00 | 0.00 | 46 | 1016.7 |
| 20260502230756 | 11 | 308 | 1.6 | 1.6 | 0.00 | 0.00 | 0.00 | 45 | 1016.8 |
| 20260502230254 | 11 | 317 | 1.6 | 1.6 | 0.00 | 0.00 | 0.00 | 46 | 1016.9 |
| 20260502225750 | 11 | 297 | 3.2 | 3.2 | 0.00 | 0.00 | 0.00 | 46 | 1016.7 |
| 20260502225247 | 11 | 358 | 1.6 | 1.6 | 0.00 | 0.00 | 0.00 | 47 | 1016.8 |
| 20260502224744 | 11 | 5 | 1.6 | 1.6 | 0.00 | 0.00 | 0.00 | 47 | 1016.7 |
| 20260502224240 | 11 | 25 | 4.8 | 8.0 | 0.00 | 0.00 | 0.00 | 46 | 1016.8 |
| 20260502223738 | 11 | 319 | 3.2 | 3.2 | 0.00 | 0.00 | 0.00 | 47 | 1016.8 |
| 20260502223236 | 11 | 344 | 0.0 | 0.0 | 0.00 | 0.00 | 0.00 | 47 | 1016.6 |
| 20260502222733 | 11 | 299 | 4.8 | 8.0 | 0.00 | 0.00 | 0.00 | 45 | 1016.8 |
| 20260502222230 | 11 | 7 | 6.4 | 11.3 | 0.00 | 0.00 | 0.00 | 44 | 1016.7 |
| 20260502221725 | 11 | 339 | 1.6 | 3.2 | 0.00 | 0.00 | 0.00 | 45 | 1016.7 |
| 20260502221223 | 11 | 313 | 1.6 | 3.2 | 0.00 | 0.00 | 0.00 | 45 | 1016.8 |
| 20260502220719 | 11 | 2 | 3.2 | 4.8 | 0.00 | 0.00 | 0.00 | 45 | 1016.5 |
| 20260502220215 | 12 | 306 | 6.4 | 8.0 | 0.00 | 0.00 | 0.00 | 44 | 1016.5 |
| 20260502215712 | 12 | 6 | 4.8 | 4.8 | 0.00 | 0.00 | 0.00 | 47 | 1016.5 |
| 20260502215209 | 12 | 307 | 3.2 | 4.8 | 0.00 | 0.00 | 0.00 | 45 | 1016.3 |
| 20260502214707 | 12 | 359 | 1.6 | 3.2 | 0.00 | 0.00 | 0.00 | 44 | 1016.5 |
| 20260502214204 | 12 | 300 | 1.6 | 1.6 | 0.00 | 0.00 | 0.00 | 45 | 1016.3 |
| 20260502213701 | 12 | 299 | 6.4 | 8.0 | 0.00 | 0.00 | 0.00 | 43 | 1016.2 |
| 20260502213158 | 12 | 336 | 4.8 | 4.8 | 0.00 | 0.00 | 0.00 | 43 | 1016.2 |
| 20260502212656 | 12 | 344 | 3.2 | 3.2 | 0.00 | 0.00 | 0.00 | 43 | 1016.4 |
| 20260502212154 | 12 | 307 | 4.8 | 4.8 | 0.00 | 0.00 | 0.00 | 42 | 1016.5 |
| 20260502211650 | 12 | 45 | 1.6 | 3.2 | 0.00 | 0.00 | 0.00 | 42 | 1016.2 |
| 20260502211147 | 12 | 32 | 4.8 | 8.0 | 0.00 | 0.00 | 0.00 | 42 | 1016.4 |
| 20260502210644 | 12 | 23 | 8.0 | 9.7 | 0.00 | 0.00 | 0.00 | 42 | 1016.2 |
| 20260502210141 | 12 | 3 | 8.0 | 9.7 | 0.00 | 0.00 | 0.00 | 41 | 1016.4 |
| 20260502205638 | 12 | 358 | 1.6 | 1.6 | 0.00 | 0.00 | 0.00 | 43 | 1016.2 |
| 20260502205135 | 13 | 11 | 4.8 | 9.7 | 0.00 | 0.00 | 0.00 | 42 | 1016.3 |
| 20260502204632 | 13 | 3 | 8.0 | 11.3 | 0.00 | 0.00 | 0.00 | 43 | 1016.4 |
| 20260502204129 | 13 | 287 | 3.2 | 3.2 | 0.00 | 0.00 | 0.00 | 44 | 1016.3 |
| 20260502203626 | 12 | 295 | 4.8 | 4.8 | 0.00 | 0.00 | 0.00 | 45 | 1016.4 |
| 20260502203125 | 13 | 344 | 3.2 | 3.2 | 0.00 | 0.00 | 0.00 | 45 | 1016.3 |
| 20260502202619 | 12 | 351 | 4.8 | 4.8 | 0.00 | 0.00 | 0.00 | 42 | 1016.4 |
| 20260502202117 | 13 | 287 | 3.2 | 4.8 | 0.00 | 0.00 | 0.00 | 43 | 1016.3 |
| 20260502201613 | 13 | 12 | 0.0 | 1.6 | 0.00 | 0.00 | 0.00 | 43 | 1016.5 |
| 20260502201110 | 13 | 292 | 8.0 | 12.9 | 0.00 | 0.00 | 0.00 | 44 | 1016.6 |
| 20260502200606 | 13 | 288 | 1.6 | 3.2 | 0.00 | 0.00 | 0.00 | 42 | 1016.5 |
| 20260502200104 | 13 | 309 | 1.6 | 3.2 | 0.00 | 0.00 | 0.00 | 42 | 1016.5 |
| 20260502195602 | 13 | 309 | 1.6 | 1.6 | 0.00 | 0.00 | 0.00 | 43 | 1016.8 |
| 20260502195057 | 13 | 296 | 3.2 | 3.2 | 0.00 | 0.00 | 0.00 | 45 | 1016.6 |
| 20260502194554 | 12 | 8 | 11.3 | 14.5 | 0.00 | 0.00 | 0.00 | 42 | 1016.8 |
| 20260502194050 | 13 | 310 | 1.6 | 1.6 | 0.00 | 0.00 | 0.00 | 45 | 1016.5 |
| 20260502193548 | 13 | 330 | 4.8 | 4.8 | 0.00 | 0.00 | 0.00 | 42 | 1016.7 |
| 20260502193044 | 13 | 321 | 0.0 | 1.6 | 0.00 | 0.00 | 0.00 | 45 | 1016.6 |
| 20260502192540 | 13 | 287 | 6.4 | 12.9 | 0.00 | 0.00 | 0.00 | 44 | 1016.7 |
| 20260502192038 | 13 | 19 | 3.2 | 3.2 | 0.00 | 0.00 | 0.00 | 42 | 1016.8 |
| 20260502191534 | 14 | 16 | 4.8 | 8.0 | 0.00 | 0.00 | 0.00 | 42 | 1016.8 |
| 20260502191032 | 13 | 295 | 8.0 | 11.3 | 0.00 | 0.00 | 0.00 | 47 | 1017.0 |
| 20260502190530 | 12 | 334 | 4.8 | 4.8 | 0.00 | 0.00 | 0.00 | 43 | 1017.0 |
| 20260502190027 | 12 | 341 | 3.2 | 4.8 | 0.00 | 0.00 | 0.00 | 45 | 1017.0 |
| 20260502185521 | 12 | 287 | 1.6 | 1.6 | 0.00 | 0.00 | 0.00 | 46 | 1017.1 |
| 20260502185018 | 12 | 303 | 3.2 | 3.2 | 0.00 | 0.00 | 0.00 | 47 | 1017.0 |
| 20260502184514 | 12 | 359 | 6.4 | 9.7 | 0.00 | 0.00 | 0.00 | 44 | 1017.1 |
| 20260502184010 | 13 | 19 | 6.4 | 8.0 | 0.00 | 0.00 | 0.00 | 44 | 1017.1 |
| 20260502183507 | 15 | 13 | 4.8 | 9.7 | 0.00 | 0.00 | 0.00 | 45 | 1017.1 |
| 20260502183002 | 13 | 313 | 3.2 | 3.2 | 0.00 | 0.00 | 0.00 | 51 | 1017.4 |
| 20260502182457 | 12 | 353 | 4.8 | 4.8 | 0.00 | 0.00 | 0.00 | 45 | 1017.1 |
| 20260502181948 | 12 | 19 | 4.8 | 9.7 | 0.00 | 0.00 | 0.00 | 44 | 1017.1 |
| 20260502181446 | 14 | 334 | 6.4 | 8.0 | 0.00 | 0.00 | 0.00 | 45 | 1017.3 |
| 20260502180945 | 12 | 24 | 3.2 | 8.0 | 0.00 | 0.00 | 0.00 | 46 | 1017.3 |
| 20260502180441 | 12 | 14 | 4.8 | 9.7 | 0.00 | 0.00 | 0.00 | 48 | 1017.4 |
| 20260502170400 | 12 | 287 | 1.6 | 1.6 | 0.00 | 0.00 | 0.00 | 51 | 1017.8 |
| 20260502164347 | 12 | 323 | 6.4 | 8.0 | 0.00 | 0.00 | 0.00 | 47 | 1018.0 |
| 20260502163843 | 12 | 288 | 6.4 | 8.0 | 0.00 | 0.00 | 0.00 | 50 | 1017.9 |
| 20260502163340 | 12 | 30 | 3.2 | 4.8 | 0.00 | 0.00 | 0.00 | 47 | 1018.0 |
| 20260502162838 | 13 | 16 | 4.8 | 8.0 | 0.00 | 0.00 | 0.00 | 47 | 1017.8 |
| 20260502162334 | 13 | 2 | 8.0 | 9.7 | 0.00 | 0.00 | 0.00 | 48 | 1018.1 |
| 20260502161831 | 13 | 44 | 4.8 | 8.0 | 0.00 | 0.00 | 0.00 | 49 | 1018.2 |
| 20260502161327 | 13 | 330 | 6.4 | 8.0 | 0.00 | 0.00 | 0.00 | 45 | 1018.3 |
| 20260502160825 | 13 | 45 | 1.6 | 3.2 | 0.00 | 0.00 | 0.00 | 43 | 1018.2 |
| 20260502160324 | 13 | 312 | 3.2 | 3.2 | 0.00 | 0.00 | 0.00 | 51 | 1018.3 |
| 20260502152259 | 12 | 49 | 1.6 | 1.6 | 0.00 | 0.00 | 0.00 | 53 | 1018.6 |
| 20260502151756 | 12 | 32 | 4.8 | 8.0 | 0.00 | 0.00 | 0.00 | 49 | 1018.4 |
| 20260502151253 | 12 | 356 | 3.2 | 4.8 | 0.00 | 0.00 | 0.00 | 51 | 1018.6 |
| 20260502150751 | 12 | 323 | 3.2 | 3.2 | 0.00 | 0.00 | 0.00 | 50 | 1018.4 |
| 20260502150248 | 12 | 33 | 1.6 | 3.2 | 0.00 | 0.00 | 0.00 | 52 | 1018.4 |
| 20260502130636 | 8 | 344 | 0.0 | 1.6 | 0.00 | 0.00 | 0.00 | 83 | 1018.6 |
| 20260502130134 | 7 | 344 | 0.0 | 0.0 | 0.00 | 0.00 | 0.00 | 85 | 1018.5 |
| 20260502123620 | 5 | 339 | 0.0 | 0.0 | 0.00 | 0.00 | 0.00 | 92 | 1018.4 |
| 20260502123116 | 5 | 342 | 0.0 | 1.6 | 0.00 | 0.00 | 0.00 | 92 | 1018.6 |
| 20260502122612 | 4 | 334 | 0.0 | 0.0 | 0.00 | 0.00 | 0.00 | 92 | 1018.3 |
| 20260502122109 | 4 | 328 | 0.0 | 0.0 | 0.00 | 0.00 | 0.00 | 92 | 1018.2 |
| 20260502121607 | 3 | 310 | 0.0 | 0.0 | 0.00 | 0.00 | 0.00 | 92 | 1018.2 |
| 20260502121105 | 3 | 314 | 0.0 | 0.0 | 0.00 | 0.00 | 0.00 | 92 | 1018.4 |
| 20260502120600 | 3 | 300 | 1.6 | 1.6 | 0.00 | 0.00 | 0.00 | 92 | 1018.5 |
| 20260502115556 | 3 | 324 | 0.0 | 0.0 | 0.00 | 0.00 | 0.00 | 92 | 1018.1 |
| 20260502115051 | 3 | 333 | 0.0 | 0.0 | 0.00 | 0.00 | 0.00 | 92 | 1018.0 |
| 20260502114548 | 3 | 341 | 0.0 | 0.0 | 0.00 | 0.00 | 0.00 | 92 | 1018.1 |
| 20260502114045 | 3 | 340 | 0.0 | 0.0 | 0.00 | 0.00 | 0.00 | 92 | 1018.1 |
| 20260502113542 | 3 | 334 | 0.0 | 0.0 | 0.00 | 0.00 | 0.00 | 92 | 1018.1 |
| 20260502113041 | 3 | 334 | 0.0 | 0.0 | 0.00 | 0.00 | 0.00 | 92 | 1018.3 |
| 20260502112538 | 3 | 332 | 0.0 | 0.0 | 0.00 | 0.00 | 0.00 | 92 | 1018.3 |
| 20260502112036 | 3 | 316 | 0.0 | 0.0 | 0.00 | 0.00 | 0.00 | 92 | 1018.2 |
| 20260502111533 | 2 | 322 | 0.0 | 0.0 | 0.00 | 0.00 | 0.00 | 92 | 1018.2 |
| 20260502111030 | 2 | 334 | 0.0 | 0.0 | 0.00 | 0.00 | 0.00 | 92 | 1018.1 |
| 20260502110527 | 2 | 337 | 0.0 | 0.0 | 0.00 | 0.00 | 0.00 | 92 | 1017.9 |
| 20260502110025 | 2 | 334 | 0.0 | 0.0 | 0.00 | 0.00 | 0.00 | 92 | 1018.0 |
| 20260502105522 | 2 | 334 | 0.0 | 0.0 | 0.00 | 0.00 | 0.00 | 92 | 1017.9 |
| 20260502105020 | 2 | 322 | 0.0 | 0.0 | 0.00 | 0.00 | 0.00 | 92 | 1017.9 |
| 20260502104516 | 2 | 338 | 0.0 | 0.0 | 0.00 | 0.00 | 0.00 | 92 | 1017.8 |
| 20260502104014 | 2 | 338 | 0.0 | 0.0 | 0.00 | 0.00 | 0.00 | 92 | 1018.0 |
| 20260502103512 | 2 | 338 | 0.0 | 0.0 | 0.00 | 0.00 | 0.00 | 92 | 1017.7 |
| 20260502103010 | 2 | 336 | 0.0 | 0.0 | 0.00 | 0.00 | 0.00 | 92 | 1018.0 |
| 20260502102506 | 2 | 333 | 0.0 | 0.0 | 0.00 | 0.00 | 0.00 | 92 | 1017.8 |
| 20260502102003 | 2 | 336 | 0.0 | 0.0 | 0.00 | 0.00 | 0.00 | 92 | 1017.8 |
| 20260502101501 | 2 | 335 | 0.0 | 0.0 | 0.00 | 0.00 | 0.00 | 92 | 1018.1 |
| 20260502100959 | 1 | 334 | 0.0 | 0.0 | 0.00 | 0.00 | 0.00 | 92 | 1018.1 |
| 20260502100457 | 2 | 334 | 0.0 | 0.0 | 0.00 | 0.00 | 0.00 | 92 | 1018.0 |
| 20260502091431 | 2 | 333 | 0.0 | 0.0 | 0.00 | 0.00 | 0.00 | 92 | 1017.8 |
| 20260502090929 | 1 | 332 | 0.0 | 0.0 | 0.00 | 0.00 | 0.00 | 92 | 1018.1 |
| 20260502090426 | 2 | 332 | 0.0 | 0.0 | 0.00 | 0.00 | 0.00 | 92 | 1018.3 |
| 20260502071320 | 2 | 334 | 0.0 | 0.0 | 0.00 | 0.00 | 0.00 | 92 | 1017.5 |
| 20260502070819 | 2 | 334 | 0.0 | 0.0 | 0.00 | 0.00 | 0.00 | 92 | 1017.5 |
| 20260502070316 | 2 | 334 | 0.0 | 0.0 | 0.00 | 0.00 | 0.00 | 92 | 1017.9 |
| 20260502065815 | 2 | 334 | 0.0 | 0.0 | 0.00 | 0.00 | 0.00 | 92 | 1017.9 |
| 20260502065312 | 2 | 334 | 0.0 | 0.0 | 0.00 | 0.00 | 0.00 | 92 | 1017.8 |
| 20260502064810 | 2 | 334 | 0.0 | 0.0 | 0.00 | 0.00 | 0.00 | 92 | 1018.1 |
| 20260502064308 | 2 | 334 | 0.0 | 0.0 | 0.00 | 0.00 | 0.00 | 92 | 1018.0 |
| 20260502063805 | 2 | 334 | 0.0 | 0.0 | 0.00 | 0.00 | 0.00 | 92 | 1017.9 |